iso_date,Year,Hour,Min,DOY,POS_DOY,Lat,Lon,BP,Ts,Ta,has_bp,has_ts,has_ta,BuoyID,Buoy_Type,Buoy_Owner,Logistics,Hemisphere
2022-08-08T16:27:59Z,2022,16,28,220.6861,220.6861,74.9716,-16.2036,1007.7,3.41,-999.0,yes,yes,no,300534062839770,GPS_Tracker,AWI,Polarstern,North
2022-08-08T16:59:57Z,2022,17,0,220.7083,220.7083,74.9224,-16.2804,1007.8,1.49,-999.0,yes,yes,no,300534062839770,GPS_Tracker,AWI,Polarstern,North
2022-08-08T18:00:00Z,2022,18,0,220.75,220.75,74.9261,-16.3577,1007.5,1.12,-999.0,yes,yes,no,300534062839770,GPS_Tracker,AWI,Polarstern,North
2022-08-08T19:00:02Z,2022,19,0,220.7917,220.7917,74.93,-16.4389,1007.2,1.32,-999.0,yes,yes,no,300534062839770,GPS_Tracker,AWI,Polarstern,North
2022-08-08T19:59:57Z,2022,20,0,220.8333,220.8333,74.9343,-16.5212,1006.9,1.33,-999.0,yes,yes,no,300534062839770,GPS_Tracker,AWI,Polarstern,North
2022-08-08T21:00:00Z,2022,21,0,220.875,220.875,74.9388,-16.5985,1006.5,1.76,-999.0,yes,yes,no,300534062839770,GPS_Tracker,AWI,Polarstern,North
2022-08-08T22:00:02Z,2022,22,0,220.9167,220.9167,74.9417,-16.671,1006.2,1.97,-999.0,yes,yes,no,300534062839770,GPS_Tracker,AWI,Polarstern,North
2022-08-08T22:59:57Z,2022,23,0,220.9583,220.9583,74.941,-16.7443,1005.8,1.89,-999.0,yes,yes,no,300534062839770,GPS_Tracker,AWI,Polarstern,North
2022-08-09T00:00:00Z,2022,0,0,221.0,221.0,74.9364,-16.8123,1005.5,2.33,-999.0,yes,yes,no,300534062839770,GPS_Tracker,AWI,Polarstern,North
2022-08-09T01:00:02Z,2022,1,0,221.0417,221.0417,74.9271,-16.879,1005.2,2.65,-999.0,yes,yes,no,300534062839770,GPS_Tracker,AWI,Polarstern,North
2022-08-09T01:59:57Z,2022,2,0,221.0833,221.0833,74.9115,-16.9464,1004.9,2.83,-999.0,yes,yes,no,300534062839770,GPS_Tracker,AWI,Polarstern,North
2022-08-09T03:00:00Z,2022,3,0,221.125,221.125,74.8912,-16.9895,1004.4,-0.77,-999.0,yes,yes,no,300534062839770,GPS_Tracker,AWI,Polarstern,North
2022-08-09T04:00:02Z,2022,4,0,221.1667,221.1667,74.8679,-17.0126,1004.1,-0.43,-999.0,yes,yes,no,300534062839770,GPS_Tracker,AWI,Polarstern,North
2022-08-09T04:59:57Z,2022,5,0,221.2083,221.2083,74.8449,-17.0196,1003.6,-0.67,-999.0,yes,yes,no,300534062839770,GPS_Tracker,AWI,Polarstern,North
2022-08-09T06:00:00Z,2022,6,0,221.25,221.25,74.8214,-17.022,1003.2,0.89,-999.0,yes,yes,no,300534062839770,GPS_Tracker,AWI,Polarstern,North
2022-08-09T07:00:02Z,2022,7,0,221.2917,221.2917,74.7967,-17.0183,1003.0,0.93,-999.0,yes,yes,no,300534062839770,GPS_Tracker,AWI,Polarstern,North
2022-08-09T07:59:57Z,2022,8,0,221.3333,221.3333,74.7697,-17.0111,1002.8,2.65,-999.0,yes,yes,no,300534062839770,GPS_Tracker,AWI,Polarstern,North
2022-08-09T09:00:00Z,2022,9,0,221.375,221.375,74.7419,-16.9969,1002.6,1.91,-999.0,yes,yes,no,300534062839770,GPS_Tracker,AWI,Polarstern,North
2022-08-09T10:00:02Z,2022,10,0,221.4167,221.4167,74.7141,-16.9852,1002.3,2.27,-999.0,yes,yes,no,300534062839770,GPS_Tracker,AWI,Polarstern,North
2022-08-09T10:59:57Z,2022,11,0,221.4583,221.4583,74.6908,-16.9711,1002.3,2.01,-999.0,yes,yes,no,300534062839770,GPS_Tracker,AWI,Polarstern,North
2022-08-09T12:00:00Z,2022,12,0,221.5,221.5,74.6682,-16.956,1002.4,1.7,-999.0,yes,yes,no,300534062839770,GPS_Tracker,AWI,Polarstern,North
2022-08-09T13:00:02Z,2022,13,0,221.5417,221.5417,74.649,-16.9408,1002.2,1.52,-999.0,yes,yes,no,300534062839770,GPS_Tracker,AWI,Polarstern,North
2022-08-09T13:59:57Z,2022,14,0,221.5833,221.5833,74.6321,-16.9188,1002.2,0.88,-999.0,yes,yes,no,300534062839770,GPS_Tracker,AWI,Polarstern,North
2022-08-09T15:00:00Z,2022,15,0,221.625,221.625,74.6175,-16.896,1002.1,0.57,-999.0,yes,yes,no,300534062839770,GPS_Tracker,AWI,Polarstern,North
2022-08-09T16:00:02Z,2022,16,0,221.6667,221.6667,74.6034,-16.8739,1002.0,0.36,-999.0,yes,yes,no,300534062839770,GPS_Tracker,AWI,Polarstern,North
2022-08-09T16:59:57Z,2022,17,0,221.7083,221.7083,74.5909,-16.8542,1001.6,0.41,-999.0,yes,yes,no,300534062839770,GPS_Tracker,AWI,Polarstern,North
2022-08-09T18:00:00Z,2022,18,0,221.75,221.75,74.5773,-16.8311,1001.4,0.41,-999.0,yes,yes,no,300534062839770,GPS_Tracker,AWI,Polarstern,North
2022-08-09T19:00:02Z,2022,19,0,221.7917,221.7917,74.564,-16.8146,1001.3,0.31,-999.0,yes,yes,no,300534062839770,GPS_Tracker,AWI,Polarstern,North
2022-08-09T19:59:57Z,2022,20,0,221.8333,221.8333,74.5513,-16.8007,1001.2,0.35,-999.0,yes,yes,no,300534062839770,GPS_Tracker,AWI,Polarstern,North
2022-08-09T21:00:00Z,2022,21,0,221.875,221.875,74.5384,-16.7841,1001.2,0.29,-999.0,yes,yes,no,300534062839770,GPS_Tracker,AWI,Polarstern,North
2022-08-09T22:00:02Z,2022,22,0,221.9167,221.9167,74.5256,-16.7694,1000.8,0.39,-999.0,yes,yes,no,300534062839770,GPS_Tracker,AWI,Polarstern,North
2022-08-09T22:59:57Z,2022,23,0,221.9583,221.9583,74.5131,-16.7552,1000.9,0.65,-999.0,yes,yes,no,300534062839770,GPS_Tracker,AWI,Polarstern,North
2022-08-10T00:00:00Z,2022,0,0,222.0,222.0,74.5005,-16.7431,1000.5,0.83,-999.0,yes,yes,no,300534062839770,GPS_Tracker,AWI,Polarstern,North
2022-08-10T01:00:02Z,2022,1,0,222.0417,222.0417,74.4894,-16.7315,1000.2,1.11,-999.0,yes,yes,no,300534062839770,GPS_Tracker,AWI,Polarstern,North
2022-08-10T01:59:57Z,2022,2,0,222.0833,222.0833,74.4797,-16.7234,1000.1,1.11,-999.0,yes,yes,no,300534062839770,GPS_Tracker,AWI,Polarstern,North
2022-08-10T03:00:00Z,2022,3,0,222.125,222.125,74.4695,-16.7154,999.8,1.14,-999.0,yes,yes,no,300534062839770,GPS_Tracker,AWI,Polarstern,North
2022-08-10T04:00:02Z,2022,4,0,222.1667,222.1667,74.459,-16.7133,999.7,1.1,-999.0,yes,yes,no,300534062839770,GPS_Tracker,AWI,Polarstern,North
2022-08-10T04:59:57Z,2022,5,0,222.2083,222.2083,74.4493,-16.7213,999.4,0.99,-999.0,yes,yes,no,300534062839770,GPS_Tracker,AWI,Polarstern,North
2022-08-10T06:00:00Z,2022,6,0,222.25,222.25,74.4415,-16.7296,999.2,0.88,-999.0,yes,yes,no,300534062839770,GPS_Tracker,AWI,Polarstern,North
2022-08-10T07:00:02Z,2022,7,0,222.2917,222.2917,74.4341,-16.7368,1000.5,0.66,-999.0,yes,yes,no,300534062839770,GPS_Tracker,AWI,Polarstern,North
2022-08-10T07:59:57Z,2022,8,0,222.3333,222.3333,74.4248,-16.7437,999.2,0.6,-999.0,yes,yes,no,300534062839770,GPS_Tracker,AWI,Polarstern,North
2022-08-10T09:00:00Z,2022,9,0,222.375,222.375,74.4132,-16.7555,999.5,0.59,-999.0,yes,yes,no,300534062839770,GPS_Tracker,AWI,Polarstern,North
2022-08-10T10:00:02Z,2022,10,0,222.4167,222.4167,74.4001,-16.7741,999.8,0.52,-999.0,yes,yes,no,300534062839770,GPS_Tracker,AWI,Polarstern,North
2022-08-10T10:59:57Z,2022,11,0,222.4583,222.4583,74.3854,-16.8034,999.7,0.58,-999.0,yes,yes,no,300534062839770,GPS_Tracker,AWI,Polarstern,North
2022-08-10T12:00:00Z,2022,12,0,222.5,222.5,74.3707,-16.8366,1000.1,0.63,-999.0,yes,yes,no,300534062839770,GPS_Tracker,AWI,Polarstern,North
2022-08-10T13:00:02Z,2022,13,0,222.5417,222.5417,74.3577,-16.8744,999.9,0.94,-999.0,yes,yes,no,300534062839770,GPS_Tracker,AWI,Polarstern,North
2022-08-10T13:59:57Z,2022,14,0,222.5833,222.5833,74.3459,-16.9164,999.6,1.05,-999.0,yes,yes,no,300534062839770,GPS_Tracker,AWI,Polarstern,North
2022-08-10T15:00:00Z,2022,15,0,222.625,222.625,74.3351,-16.96,998.7,1.06,-999.0,yes,yes,no,300534062839770,GPS_Tracker,AWI,Polarstern,North
2022-08-10T16:00:02Z,2022,16,0,222.6667,222.6667,74.3247,-17.0029,999.3,0.99,-999.0,yes,yes,no,300534062839770,GPS_Tracker,AWI,Polarstern,North
2022-08-10T16:59:57Z,2022,17,0,222.7083,222.7083,74.3152,-17.0466,998.9,0.8,-999.0,yes,yes,no,300534062839770,GPS_Tracker,AWI,Polarstern,North
2022-08-10T18:00:00Z,2022,18,0,222.75,222.75,74.3065,-17.0898,998.4,0.72,-999.0,yes,yes,no,300534062839770,GPS_Tracker,AWI,Polarstern,North
2022-08-10T19:00:02Z,2022,19,0,222.7917,222.7917,74.2989,-17.126,998.7,0.59,-999.0,yes,yes,no,300534062839770,GPS_Tracker,AWI,Polarstern,North
2022-08-10T19:59:57Z,2022,20,0,222.8333,222.8333,74.2923,-17.165,998.0,0.54,-999.0,yes,yes,no,300534062839770,GPS_Tracker,AWI,Polarstern,North
2022-08-10T21:00:00Z,2022,21,0,222.875,222.875,74.2868,-17.1987,998.2,0.67,-999.0,yes,yes,no,300534062839770,GPS_Tracker,AWI,Polarstern,North
2022-08-10T22:00:02Z,2022,22,0,222.9167,222.9167,74.2812,-17.2316,998.8,0.7,-999.0,yes,yes,no,300534062839770,GPS_Tracker,AWI,Polarstern,North
2022-08-10T22:59:57Z,2022,23,0,222.9583,222.9583,74.2756,-17.2627,999.2,0.63,-999.0,yes,yes,no,300534062839770,GPS_Tracker,AWI,Polarstern,North
2022-08-11T00:00:00Z,2022,0,0,223.0,223.0,74.2709,-17.2886,999.5,0.53,-999.0,yes,yes,no,300534062839770,GPS_Tracker,AWI,Polarstern,North
2022-08-11T01:00:02Z,2022,1,0,223.0417,223.0417,74.2674,-17.3225,1000.3,0.39,-999.0,yes,yes,no,300534062839770,GPS_Tracker,AWI,Polarstern,North
2022-08-11T01:59:57Z,2022,2,0,223.0833,223.0833,74.2645,-17.3551,1001.1,0.22,-999.0,yes,yes,no,300534062839770,GPS_Tracker,AWI,Polarstern,North
2022-08-11T03:00:00Z,2022,3,0,223.125,223.125,74.2621,-17.3894,1001.6,0.32,-999.0,yes,yes,no,300534062839770,GPS_Tracker,AWI,Polarstern,North
2022-08-11T04:00:02Z,2022,4,0,223.1667,223.1667,74.2623,-17.4199,1002.1,0.26,-999.0,yes,yes,no,300534062839770,GPS_Tracker,AWI,Polarstern,North
2022-08-11T04:59:57Z,2022,5,0,223.2083,223.2083,74.263,-17.4481,1002.6,0.23,-999.0,yes,yes,no,300534062839770,GPS_Tracker,AWI,Polarstern,North
2022-08-11T06:00:00Z,2022,6,0,223.25,223.25,74.2637,-17.4711,1002.7,0.39,-999.0,yes,yes,no,300534062839770,GPS_Tracker,AWI,Polarstern,North
2022-08-11T07:00:02Z,2022,7,0,223.2917,223.2917,74.2631,-17.4877,1003.7,0.39,-999.0,yes,yes,no,300534062839770,GPS_Tracker,AWI,Polarstern,North
2022-08-11T07:59:57Z,2022,8,0,223.3333,223.3333,74.2602,-17.5062,1004.3,0.53,-999.0,yes,yes,no,300534062839770,GPS_Tracker,AWI,Polarstern,North
2022-08-11T09:00:00Z,2022,9,0,223.375,223.375,74.2564,-17.5231,1004.7,0.82,-999.0,yes,yes,no,300534062839770,GPS_Tracker,AWI,Polarstern,North
2022-08-11T10:00:02Z,2022,10,0,223.4167,223.4167,74.2529,-17.531,1005.2,0.94,-999.0,yes,yes,no,300534062839770,GPS_Tracker,AWI,Polarstern,North
2022-08-11T10:59:57Z,2022,11,0,223.4583,223.4583,74.2504,-17.531,1005.4,1.08,-999.0,yes,yes,no,300534062839770,GPS_Tracker,AWI,Polarstern,North
2022-08-11T12:00:00Z,2022,12,0,223.5,223.5,74.2532,-17.5261,1006.2,1.09,-999.0,yes,yes,no,300534062839770,GPS_Tracker,AWI,Polarstern,North
2022-08-11T13:00:02Z,2022,13,0,223.5417,223.5417,74.2576,-17.5217,1006.3,0.86,-999.0,yes,yes,no,300534062839770,GPS_Tracker,AWI,Polarstern,North
2022-08-11T13:59:57Z,2022,14,0,223.5833,223.5833,74.261,-17.5233,1006.3,0.84,-999.0,yes,yes,no,300534062839770,GPS_Tracker,AWI,Polarstern,North
2022-08-11T15:00:00Z,2022,15,0,223.625,223.625,74.2648,-17.5321,1007.1,0.79,-999.0,yes,yes,no,300534062839770,GPS_Tracker,AWI,Polarstern,North
2022-08-11T16:00:02Z,2022,16,0,223.6667,223.6667,74.2676,-17.5404,1006.5,1.02,-999.0,yes,yes,no,300534062839770,GPS_Tracker,AWI,Polarstern,North
2022-08-11T16:59:57Z,2022,17,0,223.7083,223.7083,74.273,-17.5426,1006.3,0.99,-999.0,yes,yes,no,300534062839770,GPS_Tracker,AWI,Polarstern,North
2022-08-11T18:00:00Z,2022,18,0,223.75,223.75,74.2802,-17.5404,1007.2,0.73,-999.0,yes,yes,no,300534062839770,GPS_Tracker,AWI,Polarstern,North
2022-08-11T19:00:02Z,2022,19,0,223.7917,223.7917,74.2873,-17.535,1006.9,0.68,-999.0,yes,yes,no,300534062839770,GPS_Tracker,AWI,Polarstern,North
2022-08-11T19:59:57Z,2022,20,0,223.8333,223.8333,74.2963,-17.5286,1007.7,0.55,-999.0,yes,yes,no,300534062839770,GPS_Tracker,AWI,Polarstern,North
2022-08-11T21:00:00Z,2022,21,0,223.875,223.875,74.3051,-17.5234,1007.7,0.68,-999.0,yes,yes,no,300534062839770,GPS_Tracker,AWI,Polarstern,North
2022-08-11T22:00:02Z,2022,22,0,223.9167,223.9167,74.3139,-17.517,1008.3,0.33,-999.0,yes,yes,no,300534062839770,GPS_Tracker,AWI,Polarstern,North
2022-08-11T22:59:57Z,2022,23,0,223.9583,223.9583,74.324,-17.5274,1008.0,0.44,-999.0,yes,yes,no,300534062839770,GPS_Tracker,AWI,Polarstern,North
2022-08-12T00:00:00Z,2022,0,0,224.0,224.0,74.3353,-17.5409,1008.8,0.44,-999.0,yes,yes,no,300534062839770,GPS_Tracker,AWI,Polarstern,North
2022-08-12T01:00:02Z,2022,1,0,224.0417,224.0417,74.3467,-17.56,1007.3,0.51,-999.0,yes,yes,no,300534062839770,GPS_Tracker,AWI,Polarstern,North
2022-08-12T01:59:57Z,2022,2,0,224.0833,224.0833,74.3586,-17.5768,1008.9,0.58,-999.0,yes,yes,no,300534062839770,GPS_Tracker,AWI,Polarstern,North
2022-08-12T03:00:00Z,2022,3,0,224.125,224.125,74.3705,-17.5902,1008.7,0.59,-999.0,yes,yes,no,300534062839770,GPS_Tracker,AWI,Polarstern,North
2022-08-12T04:00:02Z,2022,4,0,224.1667,224.1667,74.3812,-17.596,1010.9,0.57,-999.0,yes,yes,no,300534062839770,GPS_Tracker,AWI,Polarstern,North
2022-08-12T04:59:57Z,2022,5,0,224.2083,224.2083,74.3911,-17.5847,1009.4,0.62,-999.0,yes,yes,no,300534062839770,GPS_Tracker,AWI,Polarstern,North
2022-08-12T06:00:00Z,2022,6,0,224.25,224.25,74.3998,-17.5783,1009.5,0.82,-999.0,yes,yes,no,300534062839770,GPS_Tracker,AWI,Polarstern,North
2022-08-12T07:00:02Z,2022,7,0,224.2917,224.2917,74.4095,-17.567,1009.4,0.78,-999.0,yes,yes,no,300534062839770,GPS_Tracker,AWI,Polarstern,North
2022-08-12T07:59:57Z,2022,8,0,224.3333,224.3333,74.4175,-17.5549,1010.1,1.11,-999.0,yes,yes,no,300534062839770,GPS_Tracker,AWI,Polarstern,North
2022-08-12T09:00:00Z,2022,9,0,224.375,224.375,74.4244,-17.5599,1010.2,0.73,-999.0,yes,yes,no,300534062839770,GPS_Tracker,AWI,Polarstern,North
2022-08-12T10:00:02Z,2022,10,0,224.4167,224.4167,74.4332,-17.5675,1010.2,0.65,-999.0,yes,yes,no,300534062839770,GPS_Tracker,AWI,Polarstern,North
2022-08-12T10:59:57Z,2022,11,0,224.4583,224.4583,74.4417,-17.576,1010.5,1.19,-999.0,yes,yes,no,300534062839770,GPS_Tracker,AWI,Polarstern,North
2022-08-12T12:00:00Z,2022,12,0,224.5,224.5,74.4484,-17.5938,1011.0,1.4,-999.0,yes,yes,no,300534062839770,GPS_Tracker,AWI,Polarstern,North
2022-08-12T13:00:02Z,2022,13,0,224.5417,224.5417,74.4555,-17.6213,1010.5,1.43,-999.0,yes,yes,no,300534062839770,GPS_Tracker,AWI,Polarstern,North
2022-08-12T13:59:57Z,2022,14,0,224.5833,224.5833,74.461,-17.6526,1010.2,1.39,-999.0,yes,yes,no,300534062839770,GPS_Tracker,AWI,Polarstern,North
2022-08-12T15:00:00Z,2022,15,0,224.625,224.625,74.4667,-17.6808,1011.1,1.33,-999.0,yes,yes,no,300534062839770,GPS_Tracker,AWI,Polarstern,North
2022-08-12T16:00:02Z,2022,16,0,224.6667,224.6667,74.4739,-17.7009,1010.6,1.36,-999.0,yes,yes,no,300534062839770,GPS_Tracker,AWI,Polarstern,North
2022-08-12T16:59:57Z,2022,17,0,224.7083,224.7083,74.4809,-17.7177,1009.5,1.46,-999.0,yes,yes,no,300534062839770,GPS_Tracker,AWI,Polarstern,North
2022-08-12T18:00:00Z,2022,18,0,224.75,224.75,74.4878,-17.7245,1010.6,1.48,-999.0,yes,yes,no,300534062839770,GPS_Tracker,AWI,Polarstern,North
2022-08-12T19:00:02Z,2022,19,0,224.7917,224.7917,74.4947,-17.725,1010.3,1.43,-999.0,yes,yes,no,300534062839770,GPS_Tracker,AWI,Polarstern,North
2022-08-12T19:59:57Z,2022,20,0,224.8333,224.8333,74.5012,-17.7186,1010.1,1.44,-999.0,yes,yes,no,300534062839770,GPS_Tracker,AWI,Polarstern,North
2022-08-12T21:00:00Z,2022,21,0,224.875,224.875,74.5082,-17.7021,1010.1,1.42,-999.0,yes,yes,no,300534062839770,GPS_Tracker,AWI,Polarstern,North
2022-08-12T22:00:02Z,2022,22,0,224.9167,224.9167,74.5159,-17.6786,1010.8,1.64,-999.0,yes,yes,no,300534062839770,GPS_Tracker,AWI,Polarstern,North
2022-08-12T22:59:57Z,2022,23,0,224.9583,224.9583,74.5236,-17.6523,1009.5,1.72,-999.0,yes,yes,no,300534062839770,GPS_Tracker,AWI,Polarstern,North
2022-08-13T00:00:00Z,2022,0,0,225.0,225.0,74.5317,-17.6268,1009.7,1.88,-999.0,yes,yes,no,300534062839770,GPS_Tracker,AWI,Polarstern,North
2022-08-13T01:00:02Z,2022,1,0,225.0417,225.0417,74.5415,-17.6025,1009.7,1.86,-999.0,yes,yes,no,300534062839770,GPS_Tracker,AWI,Polarstern,North
2022-08-13T01:59:57Z,2022,2,0,225.0833,225.0833,74.549,-17.5687,1009.4,1.87,-999.0,yes,yes,no,300534062839770,GPS_Tracker,AWI,Polarstern,North
2022-08-13T03:00:00Z,2022,3,0,225.125,225.125,74.5554,-17.533,1009.3,1.9,-999.0,yes,yes,no,300534062839770,GPS_Tracker,AWI,Polarstern,North
2022-08-13T04:00:02Z,2022,4,0,225.1667,225.1667,74.5623,-17.5022,1008.9,1.89,-999.0,yes,yes,no,300534062839770,GPS_Tracker,AWI,Polarstern,North
2022-08-13T04:59:57Z,2022,5,0,225.2083,225.2083,74.57,-17.4734,1009.0,1.76,-999.0,yes,yes,no,300534062839770,GPS_Tracker,AWI,Polarstern,North
2022-08-13T06:00:00Z,2022,6,0,225.25,225.25,74.5762,-17.4445,1008.9,1.63,-999.0,yes,yes,no,300534062839770,GPS_Tracker,AWI,Polarstern,North
2022-08-13T07:00:02Z,2022,7,0,225.2917,225.2917,74.5818,-17.4185,1008.9,1.65,-999.0,yes,yes,no,300534062839770,GPS_Tracker,AWI,Polarstern,North
2022-08-13T07:59:57Z,2022,8,0,225.3333,225.3333,74.586,-17.3937,1010.3,1.61,-999.0,yes,yes,no,300534062839770,GPS_Tracker,AWI,Polarstern,North
2022-08-13T09:00:00Z,2022,9,0,225.375,225.375,74.5898,-17.3779,1009.1,1.66,-999.0,yes,yes,no,300534062839770,GPS_Tracker,AWI,Polarstern,North
2022-08-13T10:00:02Z,2022,10,0,225.4167,225.4167,74.5951,-17.3596,1008.8,1.63,-999.0,yes,yes,no,300534062839770,GPS_Tracker,AWI,Polarstern,North
2022-08-13T10:59:57Z,2022,11,0,225.4583,225.4583,74.5994,-17.3388,1008.8,1.76,-999.0,yes,yes,no,300534062839770,GPS_Tracker,AWI,Polarstern,North
2022-08-13T12:00:00Z,2022,12,0,225.5,225.5,74.6019,-17.3141,1009.2,1.86,-999.0,yes,yes,no,300534062839770,GPS_Tracker,AWI,Polarstern,North
2022-08-13T13:00:02Z,2022,13,0,225.5417,225.5417,74.6034,-17.2868,1008.5,2.1,-999.0,yes,yes,no,300534062839770,GPS_Tracker,AWI,Polarstern,North
2022-08-13T13:59:57Z,2022,14,0,225.5833,225.5833,74.6049,-17.2573,1008.4,2.32,-999.0,yes,yes,no,300534062839770,GPS_Tracker,AWI,Polarstern,North
2022-08-13T15:00:00Z,2022,15,0,225.625,225.625,74.6071,-17.2294,1008.4,2.3,-999.0,yes,yes,no,300534062839770,GPS_Tracker,AWI,Polarstern,North
2022-08-13T16:00:02Z,2022,16,0,225.6667,225.6667,74.6067,-17.2005,1008.6,2.16,-999.0,yes,yes,no,300534062839770,GPS_Tracker,AWI,Polarstern,North
2022-08-13T16:59:57Z,2022,17,0,225.7083,225.7083,74.6039,-17.1798,1008.4,1.98,-999.0,yes,yes,no,300534062839770,GPS_Tracker,AWI,Polarstern,North
2022-08-13T18:00:00Z,2022,18,0,225.75,225.75,74.6025,-17.1702,1008.5,1.58,-999.0,yes,yes,no,300534062839770,GPS_Tracker,AWI,Polarstern,North
2022-08-13T19:00:02Z,2022,19,0,225.7917,225.7917,74.6034,-17.16,1009.1,1.38,-999.0,yes,yes,no,300534062839770,GPS_Tracker,AWI,Polarstern,North
2022-08-13T19:59:57Z,2022,20,0,225.8333,225.8333,74.6056,-17.1447,1007.9,1.34,-999.0,yes,yes,no,300534062839770,GPS_Tracker,AWI,Polarstern,North
2022-08-13T21:00:00Z,2022,21,0,225.875,225.875,74.6072,-17.1227,1009.2,1.4,-999.0,yes,yes,no,300534062839770,GPS_Tracker,AWI,Polarstern,North
2022-08-13T22:00:02Z,2022,22,0,225.9167,225.9167,74.6077,-17.0961,1009.6,1.35,-999.0,yes,yes,no,300534062839770,GPS_Tracker,AWI,Polarstern,North
2022-08-13T22:59:57Z,2022,23,0,225.9583,225.9583,74.6067,-17.0705,1010.0,1.25,-999.0,yes,yes,no,300534062839770,GPS_Tracker,AWI,Polarstern,North
2022-08-14T00:00:00Z,2022,0,0,226.0,226.0,74.6075,-17.0483,1010.1,1.23,-999.0,yes,yes,no,300534062839770,GPS_Tracker,AWI,Polarstern,North
2022-08-14T01:00:02Z,2022,1,0,226.0417,226.0417,74.6089,-17.0215,1010.8,1.27,-999.0,yes,yes,no,300534062839770,GPS_Tracker,AWI,Polarstern,North
2022-08-14T01:59:57Z,2022,2,0,226.0833,226.0833,74.6083,-16.9887,1010.9,1.26,-999.0,yes,yes,no,300534062839770,GPS_Tracker,AWI,Polarstern,North
2022-08-14T03:00:00Z,2022,3,0,226.125,226.125,74.6091,-16.939,1011.2,1.23,-999.0,yes,yes,no,300534062839770,GPS_Tracker,AWI,Polarstern,North
2022-08-14T04:00:02Z,2022,4,0,226.1667,226.1667,74.6099,-16.8819,1011.6,1.46,-999.0,yes,yes,no,300534062839770,GPS_Tracker,AWI,Polarstern,North
2022-08-14T04:59:57Z,2022,5,0,226.2083,226.2083,74.609,-16.8318,1012.2,1.3,-999.0,yes,yes,no,300534062839770,GPS_Tracker,AWI,Polarstern,North
2022-08-14T06:00:00Z,2022,6,0,226.25,226.25,74.6056,-16.7805,1012.8,1.57,-999.0,yes,yes,no,300534062839770,GPS_Tracker,AWI,Polarstern,North
2022-08-14T07:00:02Z,2022,7,0,226.2917,226.2917,74.5985,-16.7311,1013.1,0.99,-999.0,yes,yes,no,300534062839770,GPS_Tracker,AWI,Polarstern,North
2022-08-14T07:59:57Z,2022,8,0,226.3333,226.3333,74.5886,-16.6901,1013.4,1.01,-999.0,yes,yes,no,300534062839770,GPS_Tracker,AWI,Polarstern,North
2022-08-14T09:00:00Z,2022,9,0,226.375,226.375,74.5776,-16.6552,1013.8,0.85,-999.0,yes,yes,no,300534062839770,GPS_Tracker,AWI,Polarstern,North
2022-08-14T10:00:02Z,2022,10,0,226.4167,226.4167,74.5683,-16.6249,1013.7,0.96,-999.0,yes,yes,no,300534062839770,GPS_Tracker,AWI,Polarstern,North
2022-08-14T10:59:57Z,2022,11,0,226.4583,226.4583,74.5612,-16.5883,1014.6,0.92,-999.0,yes,yes,no,300534062839770,GPS_Tracker,AWI,Polarstern,North
2022-08-14T12:00:00Z,2022,12,0,226.5,226.5,74.5548,-16.5412,1014.5,0.83,-999.0,yes,yes,no,300534062839770,GPS_Tracker,AWI,Polarstern,North
2022-08-14T13:00:02Z,2022,13,0,226.5417,226.5417,74.5492,-16.481,1013.9,0.72,-999.0,yes,yes,no,300534062839770,GPS_Tracker,AWI,Polarstern,North
2022-08-14T13:59:57Z,2022,14,0,226.5833,226.5833,74.5458,-16.3983,1013.7,1.13,-999.0,yes,yes,no,300534062839770,GPS_Tracker,AWI,Polarstern,North
2022-08-14T15:00:00Z,2022,15,0,226.625,226.625,74.5428,-16.3108,1014.2,1.65,-999.0,yes,yes,no,300534062839770,GPS_Tracker,AWI,Polarstern,North
2022-08-14T16:00:02Z,2022,16,0,226.6667,226.6667,74.5387,-16.2304,1013.9,1.96,-999.0,yes,yes,no,300534062839770,GPS_Tracker,AWI,Polarstern,North
2022-08-14T16:59:57Z,2022,17,0,226.7083,226.7083,74.5327,-16.1476,1013.8,2.14,-999.0,yes,yes,no,300534062839770,GPS_Tracker,AWI,Polarstern,North
2022-08-14T18:00:00Z,2022,18,0,226.75,226.75,74.5257,-16.0664,1013.8,2.61,-999.0,yes,yes,no,300534062839770,GPS_Tracker,AWI,Polarstern,North
2022-08-14T19:00:02Z,2022,19,0,226.7917,226.7917,74.5205,-16.0057,1013.8,3.33,-999.0,yes,yes,no,300534062839770,GPS_Tracker,AWI,Polarstern,North
2022-08-14T19:59:57Z,2022,20,0,226.8333,226.8333,74.5189,-15.9689,1013.9,3.13,-999.0,yes,yes,no,300534062839770,GPS_Tracker,AWI,Polarstern,North
2022-08-14T21:00:00Z,2022,21,0,226.875,226.875,74.5172,-15.9412,1013.7,2.75,-999.0,yes,yes,no,300534062839770,GPS_Tracker,AWI,Polarstern,North
2022-08-14T22:00:02Z,2022,22,0,226.9167,226.9167,74.518,-15.9201,1013.7,2.58,-999.0,yes,yes,no,300534062839770,GPS_Tracker,AWI,Polarstern,North
2022-08-14T22:59:57Z,2022,23,0,226.9583,226.9583,74.5214,-15.9083,1013.9,2.49,-999.0,yes,yes,no,300534062839770,GPS_Tracker,AWI,Polarstern,North
2022-08-15T00:00:00Z,2022,0,0,227.0,227.0,74.5278,-15.8953,1013.9,2.5,-999.0,yes,yes,no,300534062839770,GPS_Tracker,AWI,Polarstern,North
2022-08-15T01:00:02Z,2022,1,0,227.0417,227.0417,74.5363,-15.8802,1013.7,2.52,-999.0,yes,yes,no,300534062839770,GPS_Tracker,AWI,Polarstern,North
2022-08-15T01:59:57Z,2022,2,0,227.0833,227.0833,74.5456,-15.8551,1013.6,2.54,-999.0,yes,yes,no,300534062839770,GPS_Tracker,AWI,Polarstern,North
2022-08-15T03:00:00Z,2022,3,0,227.125,227.125,74.5528,-15.8247,1013.5,2.35,-999.0,yes,yes,no,300534062839770,GPS_Tracker,AWI,Polarstern,North
2022-08-15T04:00:02Z,2022,4,0,227.1667,227.1667,74.5605,-15.7927,1013.6,2.23,-999.0,yes,yes,no,300534062839770,GPS_Tracker,AWI,Polarstern,North
2022-08-15T04:59:57Z,2022,5,0,227.2083,227.2083,74.5667,-15.7659,1013.6,2.36,-999.0,yes,yes,no,300534062839770,GPS_Tracker,AWI,Polarstern,North
2022-08-15T06:00:00Z,2022,6,0,227.25,227.25,74.5708,-15.7466,1013.9,2.46,-999.0,yes,yes,no,300534062839770,GPS_Tracker,AWI,Polarstern,North
2022-08-15T07:00:02Z,2022,7,0,227.2917,227.2917,74.5739,-15.7426,1014.2,2.43,-999.0,yes,yes,no,300534062839770,GPS_Tracker,AWI,Polarstern,North
2022-08-15T07:59:57Z,2022,8,0,227.3333,227.3333,74.5783,-15.7433,1014.4,2.51,-999.0,yes,yes,no,300534062839770,GPS_Tracker,AWI,Polarstern,North
2022-08-15T09:00:00Z,2022,9,0,227.375,227.375,74.5833,-15.752,1014.5,2.49,-999.0,yes,yes,no,300534062839770,GPS_Tracker,AWI,Polarstern,North
2022-08-15T10:00:02Z,2022,10,0,227.4167,227.4167,74.5879,-15.7715,1014.7,2.48,-999.0,yes,yes,no,300534062839770,GPS_Tracker,AWI,Polarstern,North
2022-08-15T10:59:57Z,2022,11,0,227.4583,227.4583,74.5942,-15.7923,1014.7,2.44,-999.0,yes,yes,no,300534062839770,GPS_Tracker,AWI,Polarstern,North
2022-08-15T12:00:00Z,2022,12,0,227.5,227.5,74.6019,-15.8106,1014.9,2.46,-999.0,yes,yes,no,300534062839770,GPS_Tracker,AWI,Polarstern,North
2022-08-15T13:00:02Z,2022,13,0,227.5417,227.5417,74.6089,-15.8149,1014.8,2.49,-999.0,yes,yes,no,300534062839770,GPS_Tracker,AWI,Polarstern,North